CZ-4 DEB, 26150

Orbit data source: Space-Track

CZ-4 DEB, 26150 is space debris in SSO originally from a launch on Thu, 14 Oct 1999 UTC launched from the Taiyaun Space Center, China (TSC). Debris objects in space refer to the collection of defunct objects orbiting the Earth. Examples of debris include non-operational satellites, rocket bodies, and fragments generated from explosions, collisions, or faulty payload assembly.

Loading next visibility...
Identifier
26150, 1999-057AL
Orbit
SSO
Last TLE update
23 hours ago
Origin
Manufacturer
Unknown
Mission
Spacecraft
Bus & Motor
Unknown
Mass
Unknown
Launch date (UTC)
1999-10-14 (26 years ago)
Launch vehicle
Unknown
Launch site
Taiyaun Space Center, China (TSC)
Object type
Payload
Rocket body
Debris
Shape & HBR
Unknown
Radar Cross Section
Small (<0.1 m²)

Expand to show TLE details & history

TLE from 23 hours ago
0 CZ-4 DEB
1 26150U 99057AL  25181.12262916  .00000166  00000-0  12859-3 0  9991
2 26150  99.1159 266.6286 0341217 300.7307 175.6474 13.81024598266788
Epoch: 2025-06-30T02:56Z
TLE epoch observation values (Epoch: 2025-06-30T02:56:35.159Z)
Latitude
62.01926°
Longitude
141.53342°
Altitude
1,220.588 km
Speed
7.125 km/s
True Right ascension
06h 56m 28s
True Declination
61° 53' 07"
Sunlit
Object was in daylight at epoch
Visualization orbit readout
Latitude
37.371°
Longitude
131.96513°
Altitude
1,192.763 km
Speed
7.147 km/s
Apparent Right ascension
04h 06m 05s
Apparent Declination
3° 18' 59"
Sunlit
Object is in daylight
Visualization observer readout
Local Sidereal Time
13:17:46
Azimuth
307.849° NW
Elevation
-32.088°
Doppler factor
1
Orbital elements
Apogee altitude
1,207.784 km
Perigee altitude
707.177 km
Semi-major axis
7,335.617 km
Eccentricity
0.03412
Inclination
99.1159°
RAAN
266.6286°
Arg. of periapsis
300.7307°
True anomaly
Unknown
Mean anomaly
175.6474°
Eccentric anomaly
Unknown
Mean motion
3.45452 °/min
Orbital period
104.21 mins
BSTAR
0.00012859
Loading maneuver chart data...
Loading SW <> Apogee altitude chart data...
Loading historical data...
Loading historical data...
Loading historical data...
Loading historical data...
Loading historical data...
Loading historical data...
Loading historical data...

CZ-4 DEB Visibility forecast

Observer location: undefined°, undefined°

Span
Click to sort rows by Start time (UTC) header in descending order
Start Az.
Max El. time (UTC)
Max El. Az.
Max El.
End time (UTC)
End Az.
10 mins2025-07-01 04:34:46.029Z120.7° SE2025-07-01 04:39:46.029Z61.986° ENE27.061°2025-07-01 04:44:46.029Z7.583° NNE
9 mins2025-07-01 06:18:46.029Z202.35° SSW2025-07-01 06:22:46.029Z274.453° WNW34.446°2025-07-01 06:27:46.029Z330.917° NNW
9 mins2025-07-01 17:15:46.029Z52.421° ENE2025-07-01 17:19:46.029Z93.22° ESE21.328°2025-07-01 17:24:46.029Z140.006° SSE
13 mins2025-07-01 18:56:46.029Z7.546° NNE2025-07-01 19:02:46.029Z296.272° NW42.854°2025-07-01 19:09:46.029Z207.562° SW
4 mins2025-07-01 20:42:46.029Z321.264° NNW2025-07-01 20:44:46.029Z303.597° NW13.518°2025-07-01 20:46:46.029Z286.317° WNW
|